Temperature
17 17 16 16 17 17 17 16 16 17 17 16 16 16 16 16 16 16 16 16 16 15 15 15 15 15 15 15 15 15 15 15 15 14 14 14 14 14 14 14 14 14 14
17 17 16 16 17 17 17 17 16 16 16 16 16 16 16 16 16 16 16 16 16 15 15 15 15 15 15 15 15 14 14 14 14 14 14 14 14 14 14 14 14 14 14
17 17 16 16 17 17 17 17 17 16 16 16 16 16 16 16 16 16 16 16 15 15 15 15 15 15 15 15 15 14 14 14 14 14 14 14 14 13 13 14 14 13 13
17 17 16 16 17 17 16 17 17 16 16 16 16 16 16 16 16 16 16 15 15 15 15 15 15 15 15 15 14 14 14 14 14 14 14 14 13 13 13 13 13 13 13
17 16 16 16 16 16 16 16 16 16 16 16 16 16 16 16 16 16 16 15 15 15 15 15 15 15 14 14 14 14 14 14 14 13 13 13 13 13 13 13 13 13 12
16 16 16 16 16 16 16 16 16 16 16 16 16 16 16 16 16 16 15 15 15 15 15 15 15 14 14 14 14 14 13 13 13 13 13 13 13 13 12 12 12 12 12
16 16 16 16 16 16 16 16 16 16 16 16 16 16 16 16 15 15 15 15 15 15 15 15 14 14 14 14 13 13 13 13 13 13 13 13 13 12 12 12 12 12 12
16 16 16 16 16 16 16 16 15 15 15 15 15 15 15 15 15 15 15 15 15 15 14 14 14 14 14 13 13 13 13 13 13 13 13 13 12 12 12 12 12 12 12
15 15 15 15 15 15 16 15 15 15 15 15 15 15 15 15 15 15 15 15 14 14 14 14 14 14 13 13 13 13 13 13 13 12 12 12 12 12 12 11 11 11 11
15 15 15 15 15 15 15 15 15 15 15 15 15 15 15 15 15 15 15 15 14 14 14 14 14 13 13 13 13 13 12 12 12 12 12 12 12 11 11 11 11 11 11
14 14 14 14 14 15 15 15 15 15 15 15 15 15 15 15 15 15 14 14 14 14 14 14 13 13 13 13 12 12 12 12 12 12 11 11 11 11 11 11 11 11 11
14 14 14 14 14 14 14 14 14 14 14 14 15 15 15 15 15 15 14 14 14 14 14 13 13 13 13 12 12 12 12 12 12 11 11 11 11 11 10 10 10 10 10
13 14 14 14 14 14 14 14 14 14 14 14 14 14 14 14 14 14 14 14 14 14 13 13 13 13 12 12 12 12 12 11 11 11 11 11 11 10 10 10 10 10 10
13 13 13 13 13 13 14 14 14 14 14 14 14 14 14 14 14 14 14 14 14 13 13 13 13 12 12 12 12 12 11 11 11 11 11 11 10 10 10 10 10 10 10
13 13 13 13 13 13 13 13 13 13 14 14 13 14 14 14 14 14 13 13 13 13 13 13 12 12 12 12 12 11 11 11 11 11 11 10 10 10 10 10 9 9 9
12 12 13 13 13 13 13 13 13 13 13 13 13 13 13 13 13 13 13 13 13 13 13 12 12 12 12 12 11 11 11 11 11 10 10 10 10 10 10 9 9 9 9
12 12 12 12 12 13 13 13 13 13 13 13 13 13 13 13 13 13 13 13 13 13 12 12 12 12 12 11 11 11 11 11 10 10 10 10 10 9 9 9 9 9 9
11 12 12 12 12 12 12 12 12 12 12 12 12 12 12 12 12 13 12 12 12 12 12 12 12 11 11 11 11 11 10 10 10 10 10 10 9 9 9 9 9 9 9
11 12 12 12 12 12 12 12 12 12 12 12 12 12 12 12 12 12 12 12 12 12 11 11 11 11 11 11 10 10 10 10 10 10 9 9 9 9 9 9 8 8 8
11 11 11 11 11 11 11 11 11 11 11 11 11 12 11 11 11 11 11 11 11 11 11 11 11 11 10 10 10 10 10 10 9 9 9 9 9 9 8 8 8 8 8
11 11 11 11 11 11 11 11 11 11 11 11 11 11 11 11 11 11 11 11 11 11 11 11 10 10 10 10 9 9 9 9 9 9 9 9 8 8 8 8 8 7 7
10 10 10 11 11 11 11 11 11 11 10 10 10 10 11 11 11 11 11 11 11 11 10 10 10 10 10 9 9 9 8 8 8 8 8 8 8 8 8 7 7 7 7
10 10 10 10 11 11 10 10 10 10 10 10 10 10 10 10 10 10 10 10 10 10 10 10 10 10 9 9 9 9 8 8 8 8 8 8 8 7 7 7 7 7 6
9 9 9 10 10 10 10 10 10 10 10 10 9 10 10 10 10 10 10 10 10 10 10 10 10 9 9 9 9 8 8 8 8 7 7 8 7 7 7 7 7 6 6
9 9 9 9 9 9 9 9 9 9 9 9 9 9 10 9 9 9 9 9 9 9 9 9 9 9 9 9 8 8 8 8 7 7 7 7 7 7 7 6 6 6 6
8 9 9 9 9 9 9 9 9 9 9 9 9 9 9 9 9 9 9 9 9 9 9 8 8 8 8 8 8 8 7 7 7 7 6 6 6 7 6 6 6 5 5
Wind_Speed
3 5 11 12 13 13 14 14 14 15 15 15 15 15 15 16 16 16 15 15 15 15 15 15 15 15 15 15 14 14 14 14 14 14 14 13 13 13 13 13 13 12 13
6 8 12 13 13 14 14 14 14 15 15 15 15 15 15 15 15 15 15 15 15 15 15 15 15 14 14 14 14 14 13 13 13 13 12 12 12 12 12 12 11 11 12
9 10 12 13 14 14 14 14 14 14 15 15 15 15 15 15 15 15 15 15 14 14 14 14 14 13 13 13 13 13 13 13 13 12 11 10 10 11 12 11 11 11 11
9 10 11 13 14 14 14 15 14 14 14 15 15 15 15 14 14 14 14 14 14 14 13 13 13 13 13 13 12 12 12 12 12 11 10 10 9 11 11 11 11 11 11
8 9 12 13 14 14 14 14 14 14 14 14 15 14 14 14 14 14 14 14 13 13 13 13 12 12 12 12 12 12 11 11 11 11 10 9 9 10 11 11 11 11 10
7 9 12 14 13 14 14 14 14 14 14 13 14 14 14 14 13 14 13 13 13 12 12 12 12 12 11 11 11 11 11 11 10 10 9 9 8 9 10 10 10 10 10
8 8 11 13 13 14 14 14 14 14 14 13 13 13 13 13 13 13 13 13 12 12 11 11 11 10 11 11 11 11 10 10 10 9 8 7 7 8 9 9 10 10 9
8 7 11 13 13 13 14 14 14 14 13 13 12 12 13 12 13 13 12 12 12 11 10 10 10 10 10 10 10 10 10 9 8 7 7 6 7 8 8 8 8 8 8
7 6 7 10 11 12 13 14 13 13 13 13 13 12 12 12 12 12 11 11 11 11 10 10 10 9 9 9 9 9 9 8 7 6 5 5 6 6 7 7 7 7 7
5 5 5 7 9 9 11 13 13 13 13 13 12 12 11 11 11 11 10 10 10 10 10 9 9 9 8 8 8 8 8 7 7 6 5 4 5 5 6 6 6 6 6
5 5 5 5 6 8 9 11 12 12 12 12 12 12 10 9 9 9 9 10 9 9 9 9 8 8 8 8 8 8 7 6 6 5 4 4 4 4 5 5 5 6 5
6 6 5 5 6 7 8 9 10 9 10 10 10 10 9 8 8 8 9 9 8 8 8 8 8 8 8 7 7 7 6 6 5 4 3 3 3 4 4 4 5 6 5
6 6 6 6 6 6 5 7 6 7 8 8 9 9 9 8 7 7 6 7 7 7 7 7 7 7 6 6 6 6 5 5 4 4 3 3 3 3 4 4 5 6 5
5 5 5 6 6 5 5 5 5 6 6 6 8 9 8 6 5 5 5 5 5 5 5 5 5 5 6 6 6 5 5 4 3 3 3 4 3 3 4 4 5 5 5
6 5 5 7 7 6 5 4 4 4 5 6 7 7 8 6 5 5 4 4 4 5 5 5 5 5 5 5 5 4 4 4 4 3 3 4 4 3 4 4 5 6 5
6 5 5 6 7 6 5 4 4 4 5 6 6 6 7 7 6 5 4 4 4 4 4 5 4 4 4 4 3 3 3 3 3 3 3 4 4 4 4 5 5 6 6
5 5 4 6 6 6 6 5 4 5 5 5 6 7 7 7 7 5 4 3 4 5 5 5 5 5 3 3 2 2 3 3 3 3 3 3 4 4 5 6 6 6 6
4 4 4 5 6 6 5 4 4 5 5 4 5 6 6 6 7 6 4 3 4 5 5 4 3 2 2 2 1 1 2 2 2 2 3 3 4 4 5 6 6 7 7
5 4 3 5 6 6 5 4 3 4 3 4 5 5 6 6 7 6 4 4 5 5 4 3 2 2 2 1 1 1 1 1 1 2 3 3 3 4 4 5 6 7 8
4 4 3 5 5 6 5 4 3 3 2 3 3 5 6 6 7 6 5 4 5 3 2 3 3 2 2 1 1 1 2 1 1 1 1 2 3 3 4 5 6 6 8
3 4 4 5 5 5 4 4 4 3 2 2 2 3 6 6 7 6 5 4 4 3 2 3 3 3 2 1 1 1 2 1 1 1 1 2 2 3 3 4 5 6 7
4 4 4 5 6 5 4 3 3 3 2 2 2 3 4 5 6 6 6 4 4 3 3 3 3 3 1 1 2 1 1 3 2 1 1 1 1 3 3 4 4 5 7
4 4 4 4 5 5 5 4 3 3 2 1 1 1 2 4 6 6 5 5 4 4 3 3 3 4 3 1 1 2 2 3 2 2 2 1 1 1 3 4 4 6 6
4 4 4 4 4 5 6 5 5 4 3 3 2 2 2 3 5 6 6 5 4 3 3 3 2 2 4 3 1 0 1 2 1 3 2 2 2 2 3 3 4 5 6
4 4 3 3 3 4 5 6 6 4 3 2 2 3 2 2 3 4 6 5 4 3 3 3 2 2 3 3 2 1 1 1 1 2 3 3 3 3 3 3 4 5 6
3 3 3 3 2 3 4 5 6 6 5 4 3 3 2 1 1 2 4 5 4 3 3 3 2 3 2 2 2 1 2 1 1 2 3 3 4 3 3 3 3 4 5
Wind_Direction
165 164 157 146 138 133 129 125 125 123 121 120 119 118 117 115 114 113 110 108 105 103 101 99 97 95 92 89 87 85 83 82 81 82 80 79 78 77 74 72 69 67 68
151 154 154 147 142 137 133 128 125 125 123 123 122 120 119 117 115 114 112 111 108 105 103 101 98 96 94 91 88 86 83 82 81 82 79 75 76 78 76 73 70 71 70
139 146 146 146 141 138 134 132 127 126 127 125 124 123 121 120 118 116 114 112 109 106 104 103 101 98 97 94 91 88 84 84 83 81 75 66 70 75 75 72 72 71 69
138 142 144 144 142 138 134 131 132 128 129 129 127 125 124 122 120 119 116 113 110 107 104 102 101 99 98 96 94 90 87 85 84 79 67 62 67 72 71 70 68 68 67
134 141 148 143 143 141 137 135 133 134 130 130 131 129 127 125 123 121 119 116 113 109 105 103 101 100 98 96 93 90 88 85 83 75 68 62 64 70 70 67 65 64 64
137 140 148 145 143 144 141 139 135 133 134 131 133 133 131 128 126 124 122 118 115 112 108 105 102 101 99 95 92 90 87 84 79 72 65 60 62 67 68 65 63 62 59
142 137 148 148 144 145 143 140 137 135 135 135 133 137 134 131 129 126 124 122 119 116 112 109 106 103 97 92 89 89 88 85 79 70 62 55 63 68 66 65 60 58 55
144 136 147 149 146 145 145 141 139 137 136 136 133 136 137 135 132 128 126 124 121 120 116 110 106 103 100 94 91 89 87 85 80 70 61 56 64 66 66 63 58 53 50
135 133 138 144 146 145 146 143 141 138 135 134 132 130 135 135 135 131 128 125 123 121 116 111 105 101 99 97 95 91 87 82 77 71 65 56 58 60 60 58 51 47 43
134 131 129 131 138 139 144 143 141 138 135 132 131 127 127 130 132 131 129 128 126 124 119 115 108 101 95 95 95 92 86 75 71 69 64 58 55 51 52 52 45 41 37
144 141 134 128 131 133 137 141 138 137 134 130 130 128 121 120 122 124 128 128 127 126 122 117 109 99 90 90 93 87 81 72 70 61 57 53 49 44 43 40 33 28 24
169 164 151 144 136 132 134 134 133 130 129 126 127 126 120 119 120 122 125 124 123 121 120 114 105 95 87 84 88 84 78 70 62 52 43 39 33 31 32 26 20 18 16
176 168 164 156 143 135 130 130 129 128 127 126 127 127 124 118 115 114 113 110 110 111 104 101 92 89 90 90 88 84 83 77 64 47 30 25 18 15 19 14 7 7 8
170 170 166 157 148 140 133 133 129 135 135 136 137 133 131 126 122 118 113 110 108 108 105 97 92 91 89 91 94 91 82 79 63 43 23 17 7 11 10 6 4 4 5
175 175 168 164 154 150 138 135 131 134 141 140 140 142 142 142 143 133 121 118 115 115 115 109 102 96 86 78 83 90 81 73 62 46 24 16 14 12 8 3 358 357 356
182 179 171 167 158 151 146 143 141 139 139 141 144 148 148 144 139 140 135 127 125 123 122 120 114 107 95 88 80 83 82 71 63 52 34 20 16 13 4 356 350 346 343
187 174 170 167 155 153 148 148 145 145 144 150 152 151 149 149 147 139 148 138 135 130 120 111 104 99 94 87 81 72 71 63 61 48 34 29 26 16 5 354 347 339 333
181 176 172 167 158 157 151 150 149 150 149 151 156 155 154 153 149 141 142 143 137 131 123 120 119 105 99 97 82 53 56 57 45 43 43 37 33 26 12 359 349 343 334
183 175 174 168 160 157 151 145 141 138 142 147 152 155 159 153 150 145 142 138 131 128 126 133 115 125 127 107 86 26 23 40 22 31 37 37 39 35 23 3 353 348 340
175 164 174 164 156 151 146 134 128 128 145 146 159 162 159 155 153 147 143 141 136 129 139 140 135 112 124 131 88 16 341 344 12 25 18 30 34 32 22 9 3 351 340
167 166 175 169 159 152 155 157 159 171 171 171 163 160 160 157 154 149 146 143 141 144 150 153 149 131 109 115 87 1 337 318 295 307 21 29 18 12 13 2 357 353 343
181 177 176 180 167 163 167 167 163 154 159 169 161 157 163 164 163 160 155 157 154 145 140 142 154 149 132 130 134 131 319 316 303 288 302 301 322 354 351 339 341 340 340
186 178 184 184 174 166 153 135 121 107 101 113 173 170 172 178 174 170 163 155 159 160 166 165 167 165 174 189 154 152 176 250 298 299 277 276 293 310 322 325 329 330 327
185 164 168 174 167 164 154 155 160 168 179 201 199 186 182 188 184 173 162 161 164 163 162 170 162 176 170 191 195 210 204 190 225 298 298 288 286 286 292 310 315 318 318
175 164 162 150 153 165 164 166 169 178 182 179 175 174 185 196 181 173 164 160 162 158 160 160 155 164 179 181 187 195 232 282 223 226 278 296 306 282 274 283 300 308 311
158 156 158 160 170 167 176 176 179 180 177 176 182 192 190 195 187 175 161 156 156 156 161 164 157 163 176 166 172 185 197 210 228 224 252 279 290 287 284 280 284 303 313
Height
1515 1517 1519 1521 1523 1524 1525 1527 1528 1530 1531 1532 1533 1534 1535 1536 1536 1537 1538 1538 1539 1539 1540 1540 1540 1541 1541 1541 1541 1541 1541 1541 1541 1541 1541 1541 1541 1541 1540 1540 1540 1539 1539
1513 1516 1519 1521 1522 1524 1525 1527 1528 1530 1531 1532 1533 1534 1535 1536 1537 1538 1539 1539 1540 1540 1541 1541 1541 1542 1542 1542 1542 1542 1542 1542 1542 1542 1542 1542 1542 1542 1541 1541 1541 1541 1540
1513 1515 1518 1520 1522 1524 1525 1527 1528 1530 1531 1533 1534 1535 1536 1537 1538 1538 1539 1540 1540 1541 1542 1542 1542 1543 1543 1543 1543 1543 1543 1543 1543 1543 1543 1543 1543 1543 1542 1542 1542 1541 1541
1513 1515 1517 1520 1522 1524 1525 1527 1528 1530 1531 1533 1534 1535 1536 1537 1538 1539 1540 1540 1541 1542 1542 1543 1543 1543 1543 1543 1544 1544 1544 1544 1544 1544 1544 1543 1543 1543 1543 1543 1542 1542 1542
1513 1515 1517 1519 1521 1523 1525 1526 1528 1530 1531 1533 1534 1535 1536 1537 1538 1539 1540 1541 1541 1542 1543 1543 1543 1544 1544 1544 1544 1544 1544 1544 1544 1544 1544 1544 1544 1544 1544 1543 1543 1543 1542
1513 1515 1517 1519 1521 1523 1525 1526 1528 1529 1531 1532 1534 1535 1536 1537 1538 1539 1540 1541 1542 1543 1543 1544 1544 1544 1545 1545 1545 1545 1545 1545 1545 1545 1545 1545 1545 1545 1544 1544 1544 1543 1542
1512 1514 1516 1518 1520 1522 1524 1526 1528 1529 1531 1532 1533 1535 1536 1538 1539 1539 1540 1541 1542 1543 1543 1544 1544 1545 1545 1545 1545 1545 1545 1546 1546 1545 1545 1545 1545 1545 1545 1544 1544 1543 1543
1512 1514 1516 1518 1520 1521 1523 1525 1527 1528 1530 1532 1533 1535 1536 1537 1539 1540 1540 1541 1542 1543 1543 1544 1544 1545 1545 1545 1545 1546 1546 1546 1546 1546 1546 1546 1546 1545 1545 1544 1544 1543 1542
1512 1513 1515 1517 1519 1521 1522 1524 1526 1528 1529 1531 1533 1534 1536 1537 1538 1539 1540 1541 1542 1543 1543 1544 1544 1545 1545 1545 1545 1546 1546 1546 1546 1546 1546 1546 1546 1545 1545 1544 1543 1543 1542
1511 1513 1514 1516 1518 1520 1522 1524 1526 1527 1529 1530 1532 1533 1535 1536 1538 1539 1540 1541 1542 1542 1543 1544 1544 1544 1545 1545 1545 1545 1545 1546 1546 1545 1545 1545 1545 1545 1544 1544 1543 1542 1541
1510 1512 1514 1515 1517 1519 1521 1523 1525 1527 1528 1530 1531 1533 1534 1536 1537 1538 1539 1540 1541 1542 1543 1543 1543 1544 1544 1545 1545 1545 1545 1545 1545 1545 1545 1545 1545 1544 1544 1543 1542 1541 1540
1507 1510 1512 1514 1516 1518 1520 1522 1524 1526 1527 1529 1530 1532 1533 1535 1536 1538 1539 1540 1541 1541 1542 1543 1543 1544 1544 1544 1544 1544 1544 1544 1544 1544 1544 1544 1544 1544 1543 1542 1541 1540 1539
1505 1508 1510 1513 1515 1517 1518 1520 1522 1524 1526 1528 1529 1531 1532 1534 1535 1537 1538 1539 1540 1541 1542 1542 1543 1543 1543 1544 1544 1543 1544 1544 1544 1543 1543 1543 1543 1542 1542 1541 1540 1539 1538
1504 1506 1508 1511 1513 1515 1517 1518 1520 1523 1525 1526 1528 1530 1531 1532 1534 1535 1537 1538 1539 1540 1541 1541 1542 1542 1543 1543 1543 1543 1543 1543 1542 1542 1542 1542 1541 1541 1540 1539 1539 1538 1537
1502 1504 1507 1509 1512 1514 1516 1517 1519 1521 1523 1525 1527 1529 1530 1531 1532 1534 1535 1537 1538 1539 1540 1540 1541 1541 1541 1542 1542 1542 1542 1541 1541 1541 1540 1540 1540 1539 1538 1538 1537 1536 1535
1501 1503 1505 1507 1510 1512 1514 1516 1518 1520 1522 1524 1525 1527 1529 1530 1531 1532 1534 1535 1537 1538 1538 1539 1539 1540 1540 1540 1540 1540 1540 1540 1539 1539 1539 1538 1538 1537 1536 1536 1535 1534 1533
1498 1500 1503 1505 1508 1510 1512 1514 1516 1518 1520 1522 1524 1526 1527 1529 1530 1531 1533 1534 1535 1536 1537 1537 1538 1538 1538 1539 1539 1538 1538 1538 1538 1537 1537 1536 1536 1535 1534 1533 1532 1531 1530
1496 1498 1501 1503 1506 1508 1510 1512 1514 1516 1518 1520 1522 1524 1525 1527 1528 1529 1530 1532 1533 1534 1535 1535 1536 1536 1536 1536 1536 1536 1536 1536 1536 1535 1535 1534 1533 1533 1532 1531 1530 1529 1528
1494 1496 1499 1501 1503 1506 1509 1511 1513 1514 1516 1518 1520 1522 1523 1525 1526 1527 1529 1529 1530 1532 1533 1533 1534 1534 1534 1534 1534 1534 1534 1534 1533 1533 1532 1532 1531 1530 1529 1528 1527 1526 1525
1492 1494 1497 1499 1501 1504 1506 1508 1510 1512 1514 1516 1518 1519 1521 1523 1524 1525 1526 1527 1528 1529 1530 1531 1532 1532 1532 1532 1532 1532 1532 1532 1531 1531 1530 1530 1529 1528 1527 1526 1525 1523 1522
1489 1491 1493 1496 1499 1501 1503 1504 1506 1509 1510 1512 1514 1516 1518 1520 1522 1523 1524 1525 1526 1527 1528 1529 1529 1529 1530 1530 1530 1529 1529 1529 1529 1528 1528 1527 1526 1525 1524 1523 1522 1520 1519
1486 1488 1491 1493 1495 1498 1500 1502 1505 1506 1508 1510 1512 1513 1515 1517 1519 1520 1521 1522 1523 1524 1525 1526 1527 1526 1527 1527 1528 1527 1526 1527 1525 1525 1525 1524 1523 1523 1521 1520 1519 1518 1516
1483 1485 1487 1490 1492 1495 1498 1500 1502 1504 1506 1507 1508 1509 1511 1514 1515 1517 1518 1519 1520 1521 1522 1523 1524 1524 1524 1525 1525 1526 1525 1523 1522 1521 1521 1521 1520 1519 1518 1517 1516 1515 1513
1480 1483 1485 1487 1490 1493 1495 1497 1498 1500 1502 1503 1505 1507 1509 1511 1512 1513 1515 1516 1517 1518 1519 1520 1521 1521 1521 1521 1522 1522 1523 1521 1520 1517 1517 1517 1517 1516 1515 1514 1513 1511 1509
1478 1480 1482 1484 1487 1490 1492 1494 1496 1498 1499 1501 1503 1505 1506 1507 1508 1510 1511 1512 1514 1514 1516 1516 1517 1518 1518 1518 1519 1519 1519 1518 1517 1516 1514 1513 1513 1512 1511 1510 1509 1507 1505
1475 1477 1480 1482 1484 1486 1488 1490 1492 1494 1495 1497 1499 1500 1501 1503 1504 1506 1507 1508 1510 1511 1512 1513 1514 1514 1514 1515 1515 1515 1515 1514 1513 1513 1511 1509 1508 1508 1507 1506 1505 1503 1501